Location: ???? ?????
(30.0052°N, 31.2891°E)
Time: 10:18:05
(UTC+00:00)

Envisat - Visible Passes

Search period start: 20 September 2024 00:00
Search period end: 30 September 2024 00:00
Orbit: 762 x 764 km, 98.3° (Epoch: 19 September)

Date Brightness Start Highest point End Pass type
(mag) Time Alt. Az. Time Alt. Az. Time Alt. Az.
20 Sep 4.9 01:04:08 10° N 01:05:49 21° N 01:05:49 21° N visible
21 Sep 5.7 00:26:59 10° NNE 00:27:48 14° NE 00:27:48 14° NE visible
21 Sep 5.0 02:07:00 10° NNW 02:07:57 13° NW 02:07:57 13° NW visible
22 Sep 4.9 01:28:23 10° N 01:29:56 19° NNW 01:29:56 19° NNW visible
23 Sep 5.3 00:50:45 10° NNE 00:51:56 17° NNE 00:51:56 17° NNE visible
24 Sep 5.0 01:53:01 10° NNW 01:54:03 15° NNW 01:54:03 15° NNW visible
25 Sep 5.1 01:14:50 10° N 01:16:02 17° N 01:16:02 17° N visible
26 Sep 5.7 00:37:27 10° NNE 00:38:01 13° NNE 00:38:01 13° NNE visible
27 Sep 5.1 01:39:14 10° N 01:40:08 15° NNW 01:40:08 15° NNW visible
28 Sep 5.4 01:01:21 10° N 01:02:07 15° N 01:02:07 15° N visible
29 Sep 5.3 02:04:07 10° NNW 02:04:14 10° NNW 02:04:14 10° NNW visible
